Terug naar catalogus

COSMOS 2173

ActiefMilitairPO
NORAD 21796·PAYLOAD·🇷🇺 Russia

Gelanceerd Nov 27, 1991 vanaf Plesetsk Cosmodrome

Loading…

Volgende Passages (komende 24 uur)

TLE

VersSource: Space-Track

Epoch: Sep 14, 2026, 01:59 UTC

1 21796U 91081A   26257.08286274  .00000068  00000-0  53508-4 0  9992
2 21796  82.9523 104.9809 0050524  93.2582  18.1771 13.75770137746623

Volg COSMOS 2173 in realtime met AllMySat

Download on the App Store